Location: Newcastle Observatory
(43.9158°N, 78.5831°W)
Time: 11:13:37
(UTC-05:00)

Amateur Radio Satellites - All Passes

Search period start: 04 December 2016 10:43
Search period end: 05 December 2016 10:43
Location: Newcastle Observatory, 43.9158°N, 78.5831°W

Satellite Date Start Highest point End Downlink Frequencies (MHz)
Time Altitude Azimuth
ESTCUBE 1 04 Dec 10:44:05 10:47:06 17° 92° (E) 10:50:06 437.505/2401.250
DUCHIFAT 1 04 Dec 10:45:28 10:49:34 49° 72° (ENE) 10:53:42 145.980
DANDE 04 Dec 10:53:50 10:58:44 76° 279° (W) 11:02:25 436.750
UNISAT 6 04 Dec 10:55:36 10:58:29 16° 270° (W) 11:01:21 437.425
AISAT 04 Dec 11:01:04 11:02:15 11° 88° (E) 11:03:26 437.250
POPSAT HIP 1 04 Dec 11:01:22 11:05:39 84° 76° (ENE) 11:09:58 437.405
PCSat 04 Dec 11:03:13 11:07:11 21° 106° (ESE) 11:11:10 145.827
Oscar 19 04 Dec 11:10:11 11:12:12 12° 56° (ENE) 11:14:13 437.125/150
RS-15 04 Dec 11:28:56 11:39:22 32° 341° (NNW) 11:50:02 29.354- 29.394
CUBEBUG 1 04 Dec 11:30:22 11:34:21 32° 96° (E) 11:38:19 437.445
Cosmos 2499 04 Dec 11:30:52 11:39:22 52° 74° (ENE) 11:47:14 435.465 / 435.565
VELOX 1 04 Dec 11:36:02 11:39:43 25° 95° (E) 11:43:23 145.980
JAS-2 04 Dec 11:39:13 11:45:19 39° 262° (W) 11:50:48 435.910
HUMSAT D 04 Dec 11:40:25 11:43:13 18° 295° (WNW) 11:45:59 437.325/437.525
BUGSAT 1 04 Dec 11:50:40 11:54:54 83° 257° (WSW) 11:59:11 437.445
DX 1 04 Dec 11:56:23 11:59:47 22° 94° (E) 12:03:10 434.975-435.025
NANOSAT C BR1 04 Dec 11:58:30 12:02:02 25° 265° (W) 12:05:37 145.865
QB50P2 04 Dec 12:02:46 12:05:58 20° 267° (W) 12:09:12 145.880/145.840
POLYITAN 1 04 Dec 12:03:15 12:06:33 21° 266° (W) 12:09:53 437.675
UKube-1 04 Dec 12:07:37 12:10:56 21° 94° (E) 12:14:14 .
AO-85 04 Dec 12:11:56 12:15:19 27° 245° (WSW) 12:18:37 145.980
QB50P1 04 Dec 12:17:49 12:20:24 16° 269° (W) 12:23:01 145.935-145.965
ESTCUBE 1 04 Dec 12:19:49 12:24:10 49° 289° (WNW) 12:28:31 437.505/2401.250
50 SAT 04 Dec 12:22:37 12:26:10 69° 102° (ESE) 12:29:43 437.505
DUCHIFAT 1 04 Dec 12:22:54 12:25:31 16° 269° (W) 12:28:09 145.980
SPROUT 04 Dec 12:23:55 12:28:09 53° 100° (E) 12:32:19 437.525
GONETS M04 04 Dec 12:26:13 12:34:59 86° 264° (W) 12:43:43
Gurwin Techsat 1B 04 Dec 12:26:19 12:30:55 31° 65° (ENE) 12:35:33 435.225
AISAT 04 Dec 12:34:45 12:39:15 77° 287° (WNW) 12:43:42 437.250
PCSat 04 Dec 12:44:46 12:50:06 60° 305° (NW) 12:55:30 145.827
Oscar 19 04 Dec 12:45:34 12:50:41 83° 76° (ENE) 12:55:52 437.125/150
BEESAT 3 04 Dec 12:52:45 12:55:14 16° 38° (NE) 12:57:43 437.485
AO-7 04 Dec 13:02:16 13:08:29 24° 50° (NE) 13:14:42 29.400- 29.500
CUBEBUG 1 04 Dec 13:06:48 13:10:31 26° 293° (WNW) 13:14:12 437.445
ITAMSAT 1 04 Dec 13:11:21 13:15:03 20° 61° (ENE) 13:18:45 435.822/435.867
VELOX 1 04 Dec 13:12:11 13:16:13 34° 291° (WNW) 13:20:14 145.980
BEESAT 2 04 Dec 13:17:44 13:20:00 14° 37° (NE) 13:22:14 435.950
Cosmos 2499 04 Dec 13:24:31 13:32:08 36° 276° (W) 13:39:20 435.465 / 435.565
DX 1 04 Dec 13:32:01 13:36:05 37° 291° (WNW) 13:40:08 434.975-435.025
UKube-1 04 Dec 13:43:03 13:47:05 38° 291° (WNW) 13:51:04 .
AUBIESAT-1 04 Dec 13:45:17 13:46:30 11° 92° (E) 13:47:43 437.475
RS-15 04 Dec 13:46:25 13:56:57 31° 16° (NNE) 14:07:25 29.354- 29.394
TISAT 1 04 Dec 13:52:48 13:57:03 82° 101° (ESE) 14:01:16 437.305
M-CUBED/EXP-1 PRIME 04 Dec 13:54:12 13:57:21 18° 96° (E) 14:00:26 437.505
SPROUT 04 Dec 14:01:00 14:03:39 16° 297° (WNW) 14:06:17 437.525
Gurwin Techsat 1B 04 Dec 14:05:51 14:10:45 37° 263° (W) 14:15:42 435.225
GONETS M04 04 Dec 14:25:09 14:30:26 18° 284° (WNW) 14:35:46
SWISSCUBE 04 Dec 14:26:48 14:31:17 40° 98° (E) 14:35:44 437.505
Oscar 19 04 Dec 14:28:36 14:30:40 12° 272° (W) 14:32:45 437.125/150
BEESAT 3 04 Dec 14:29:21 14:33:21 74° 238° (WSW) 14:37:18 437.485
BEESAT 04 Dec 14:31:04 14:35:33 39° 98° (E) 14:39:59 436.000
PCSat 04 Dec 14:31:53 14:34:40 14° 326° (NNW) 14:37:28 145.827
ITAMSAT 1 04 Dec 14:48:54 14:54:04 60° 259° (WSW) 14:59:15 435.822/435.867
AO-7 04 Dec 14:51:55 15:00:14 89° 251° (WSW) 15:08:38 29.400- 29.500
BEESAT 2 04 Dec 14:54:19 14:58:22 88° 237° (WSW) 15:02:24 435.950
ITUPSAT 1 04 Dec 14:57:16 15:02:02 70° 102° (ESE) 15:06:46 437.325
AUBIESAT-1 04 Dec 15:16:50 15:21:29 84° 290° (WNW) 15:25:58 437.475
HORYU 2 04 Dec 15:17:27 15:19:17 12° 59° (ENE) 15:21:08 437.375
M-CUBED/EXP-1 PRIME 04 Dec 15:27:31 15:32:07 56° 293° (WNW) 15:36:36 437.505
AIST 2 04 Dec 15:28:47 15:30:14 11° 33° (NNE) 15:31:41 435.215
TISAT 1 04 Dec 15:30:59 15:32:02 11° 301° (WNW) 15:33:06 437.305
O/OREOS (USA 219) 04 Dec 15:33:26 15:36:37 19° 101° (E) 15:39:49 437.305
BRITE-PL 04 Dec 15:36:58 15:40:11 21° 64° (ENE) 15:43:34 437.365/2234.400
MOZHAYETS 4 04 Dec 15:53:34 15:58:07 70° 102° (ESE) 16:02:39
CUBESAT XI-V 04 Dec 15:54:10 15:55:00 10° 87° (E) 15:55:51 437.345
RS-15 04 Dec 16:00:17 16:12:37 63° 47° (NE) 16:24:36 29.354- 29.394
SWISSCUBE 04 Dec 16:05:03 16:08:52 24° 295° (WNW) 16:12:40 437.505
NOAA 18 04 Dec 16:07:55 16:09:11 11° 52° (NE) 16:10:27 137.9125
BEESAT 04 Dec 16:09:17 16:13:07 25° 295° (WNW) 16:16:56 436.000
CUTE-I 04 Dec 16:11:51 16:15:05 16° 58° (ENE) 16:18:19 437.470
Cosmos 2491 04 Dec 16:30:38 16:36:24 19° 59° (ENE) 16:42:07 435.465 / 435.565
Cubesat XI-IV 04 Dec 16:35:51 16:40:11 25° 63° (ENE) 16:44:31 437.490
ITUPSAT 1 04 Dec 16:36:37 16:39:18 15° 300° (WNW) 16:41:59 437.325
KKS-1 04 Dec 16:37:03 16:41:35 83° 104° (ESE) 16:46:03 437.445
NOAA 15 04 Dec 16:39:05 16:43:33 29° 65° (ENE) 16:48:02 137.62
STARS 04 Dec 16:48:09 16:52:29 50° 100° (E) 16:56:46 437.465
AO-7 04 Dec 16:48:34 16:54:05 19° 270° (W) 16:59:39 29.400- 29.500
HORYU 2 04 Dec 16:50:43 16:55:12 80° 255° (WSW) 16:59:43 437.375
ISS 04 Dec 16:52:21 16:55:22 35° 139° (SE) 16:58:25 145.825
AUBIESAT-1 04 Dec 16:53:18 16:55:07 12° 307° (NW) 16:56:55 437.475
GOMX 1 04 Dec 16:58:37 17:03:04 59° 73° (ENE) 17:07:52 467.674
LilacSat-2 04 Dec 17:02:55 17:06:25 34° 71° (ENE) 17:09:55 437.200
AIST 2 04 Dec 17:05:23 17:09:35 60° 52° (NE) 17:13:45 435.215
O/OREOS (USA 219) 04 Dec 17:11:16 17:15:40 46° 298° (WNW) 17:20:04 437.305
BRITE-PL 04 Dec 17:14:24 17:18:24 39° 263° (W) 17:22:40 437.365/2234.400
HO-68 04 Dec 17:14:35 17:19:09 18° 52° (NE) 17:23:44 435.675
CINEMA 3 04 Dec 17:15:25 17:17:19 12° 58° (ENE) 17:19:15 145.822/145.860
DOVE 4 04 Dec 17:18:06 17:22:34 41° 69° (ENE) 17:27:18 437.250
CUBESAT XI-V 04 Dec 17:28:18 17:32:59 84° 284° (WNW) 17:37:40 437.345
MOZHAYETS 4 04 Dec 17:32:22 17:34:43 14° 299° (WNW) 17:37:05
NOAA 18 04 Dec 17:43:18 17:48:46 65° 71° (ENE) 17:54:17 137.9125
CUTE-I 04 Dec 17:49:06 17:54:28 79° 256° (WSW) 17:59:53 437.470
CUTE 1.7 + AOD 2 04 Dec 17:52:47 17:54:50 13° 62° (ENE) 17:56:53 437.475
CANX-2 04 Dec 18:09:00 18:12:17 22° 66° (ENE) 18:15:33 2200.000
RS-15 04 Dec 18:13:24 18:24:45 46° 251° (WSW) 18:35:46 29.354- 29.394
Cubesat XI-IV 04 Dec 18:14:46 18:19:57 48° 261° (W) 18:25:10 437.490
KKS-1 04 Dec 18:15:48 18:17:28 12° 301° (WNW) 18:19:08 437.445
NOAA 15 04 Dec 18:18:19 18:23:11 39° 262° (W) 18:28:05 137.62
STARS 04 Dec 18:25:30 18:28:27 18° 297° (WNW) 18:31:23 437.465
Cosmos 2491 04 Dec 18:25:58 18:34:45 82° 81° (E) 18:43:28 435.465 / 435.565
AAUSAT CUBESAT 2 04 Dec 18:26:03 18:26:52 10° 60° (ENE) 18:27:41 437.432
ISS 04 Dec 18:28:43 18:31:51 39° 337° (NNW) 18:35:00 145.825
UWE-3 04 Dec 18:31:53 18:33:18 11° 59° (ENE) 18:34:43 435.000/436.395/437.385
SEEDS 04 Dec 18:37:47 18:41:16 26° 68° (ENE) 18:44:45 437.485
LilacSat-2 04 Dec 18:38:05 18:40:48 18° 267° (W) 18:43:31 437.200
GOMX 1 04 Dec 18:38:59 18:41:40 15° 272° (W) 18:44:27 467.674
AIST 2 04 Dec 18:45:09 18:47:36 15° 250° (WSW) 18:50:02 435.215
STRAND 1 04 Dec 18:46:47 18:50:54 24° 94° (E) 18:54:58 437.568
CINEMA 3 04 Dec 18:48:42 18:53:36 84° 77° (ENE) 18:58:40 145.822/145.860
COMPASS 1 04 Dec 18:51:37 18:55:00 25° 68° (ENE) 18:58:23 437.405
YUBILEINY 04 Dec 18:55:21 19:03:39 52° 89° (E) 19:12:02 435.215
AIST 1 04 Dec 18:55:42 18:57:28 12° 83° (E) 18:59:16
DOVE 4 04 Dec 18:56:34 19:00:26 24° 268° (W) 19:04:29 437.250
HO-68 04 Dec 18:58:40 19:05:49 82° 71° (ENE) 19:13:02 435.675
CUBESAT XI-V 04 Dec 19:08:34 19:09:35 11° 302° (WNW) 19:10:37 437.345
Cosmos 2504 04 Dec 19:11:58 19:19:08 33° 83° (E) 19:26:39 435.465 / 435.565
ZACube-1 04 Dec 19:14:54 19:18:02 19° 64° (ENE) 19:21:08 437.345
CUBEBUG 2 04 Dec 19:18:28 19:23:01 47° 72° (ENE) 19:27:33 437.445
FUNcube-1 04 Dec 19:23:21 19:26:41 21° 65° (ENE) 19:30:00 145.935
CUTE 1.7 + AOD 2 04 Dec 19:25:59 19:30:10 63° 259° (W) 19:34:22 437.475
NOAA 18 04 Dec 19:26:06 19:29:53 19° 269° (W) 19:33:42 137.9125
CANX-2 04 Dec 19:44:05 19:47:56 34° 263° (W) 19:51:48 2200.000
PCSat 04 Dec 19:48:17 19:52:53 27° 45° (NE) 19:57:27 145.827
Oscar 11 04 Dec 19:55:22 19:59:22 39° 71° (ENE) 20:03:23 145.826/435.025
AAUSAT CUBESAT 2 04 Dec 19:57:37 20:01:43 79° 258° (WSW) 20:05:51 437.432
UWE-3 04 Dec 20:04:21 20:09:02 88° 77° (ENE) 20:13:41 435.000/436.395/437.385
ISS 04 Dec 20:06:22 20:08:58 21° 357° (N) 20:11:35 145.825
SEEDS 04 Dec 20:13:18 20:16:54 28° 265° (W) 20:20:30 437.485
Cosmos 2491 04 Dec 20:24:24 20:30:29 22° 282° (WNW) 20:36:33 435.465 / 435.565
STRAND 1 04 Dec 20:25:25 20:30:15 44° 291° (WNW) 20:35:03 437.568
COMPASS 1 04 Dec 20:26:50 20:30:26 29° 264° (W) 20:34:03 437.405
CINEMA 3 04 Dec 20:29:34 20:31:23 12° 274° (W) 20:33:13 145.822/145.860
AIST 1 04 Dec 20:30:15 20:34:29 60° 280° (W) 20:38:48
SO-50 04 Dec 20:42:45 20:47:30 71° 122° (ESE) 20:52:12 436.795
HO-68 04 Dec 20:49:27 20:54:20 19° 270° (W) 20:59:15 435.675
ZACube-1 04 Dec 20:49:31 20:53:57 50° 261° (W) 20:58:21 437.345
YUBILEINY 04 Dec 20:52:51 21:00:43 37° 291° (WNW) 21:08:42 435.215
HUMSAT D 04 Dec 20:56:18 21:00:07 34° 70° (ENE) 21:03:56 437.325/437.525
CUBEBUG 2 04 Dec 20:56:19 20:59:49 20° 268° (W) 21:03:21 437.445
FUNcube-1 04 Dec 20:58:17 21:02:38 44° 262° (W) 21:06:56 145.935
CUSAT 1 04 Dec 20:58:22 21:01:46 56° 261° (W) 21:06:10 437.405
Cosmos 2504 04 Dec 21:03:50 21:12:01 58° 284° (WNW) 21:20:44 435.465 / 435.565
PRISM 04 Dec 21:04:10 21:08:03 38° 98° (E) 21:11:57 437.425
DELFI C3 04 Dec 21:10:25 21:14:20 86° 258° (WSW) 21:18:17 145.870
UNISAT 6 04 Dec 21:10:32 21:10:57 10° 87° (E) 21:11:22 437.425
DANDE 04 Dec 21:29:09 21:31:51 69° 79° (E) 21:35:02 436.750
PCSat 04 Dec 21:31:18 21:36:36 55° 245° (WSW) 21:41:53 145.827
Oscar 11 04 Dec 21:32:26 21:35:38 20° 267° (W) 21:38:51 145.826/435.025
TIGRISAT 04 Dec 21:38:34 21:41:50 20° 92° (E) 21:45:01 435.000
ANTELSAT 04 Dec 21:39:29 21:42:54 22° 93° (E) 21:46:15 437.575/2403.000
ISS 04 Dec 21:43:11 21:46:11 30° 18° (NNE) 21:49:10 145.825
ESTCUBE 1 04 Dec 21:45:03 21:48:16 20° 64° (ENE) 21:51:29 437.505/2401.250
AISAT 04 Dec 21:59:34 22:01:34 13° 60° (ENE) 22:03:35 437.250
SO-50 04 Dec 22:24:51 22:28:26 21° 321° (NW) 22:31:58 436.795
CUBEBUG 1 04 Dec 22:27:33 22:31:24 31° 68° (ENE) 22:35:17 437.445
HUMSAT D 04 Dec 22:32:33 22:35:48 21° 266° (W) 22:39:03 437.325/437.525
VELOX 1 04 Dec 22:34:37 22:38:17 26° 66° (ENE) 22:41:59 145.980
PRISM 04 Dec 22:40:03 22:43:06 20° 295° (WNW) 22:46:09 437.425
UNISAT 6 04 Dec 22:43:49 22:48:16 78° 284° (WNW) 22:52:35 437.425
POPSAT HIP 1 04 Dec 22:46:43 22:48:26 12° 89° (E) 22:50:08 437.405
JAS-2 04 Dec 22:46:50 22:50:49 22° 93° (E) 22:54:54 435.910
DX 1 04 Dec 22:53:16 22:56:41 23° 65° (ENE) 23:00:08 434.975-435.025
50 SAT 04 Dec 22:59:14 23:02:24 33° 71° (ENE) 23:05:35 437.505
UKube-1 04 Dec 23:03:29 23:06:48 22° 65° (ENE) 23:10:10 .
Cosmos 2504 04 Dec 23:04:07 23:07:43 13° 308° (NW) 23:11:23 435.465 / 435.565
TIGRISAT 04 Dec 23:14:33 23:18:42 40° 290° (WNW) 23:22:44 435.000
ANTELSAT 04 Dec 23:15:40 23:19:44 37° 291° (WNW) 23:23:43 437.575/2403.000
SPROUT 04 Dec 23:18:21 23:22:29 47° 71° (ENE) 23:26:38 437.525
ISS 04 Dec 23:19:35 23:22:51 59° 216° (SW) 23:26:07 145.825
ESTCUBE 1 04 Dec 23:20:28 23:24:45 45° 261° (W) 23:29:04 437.505/2401.250
BUGSAT 1 04 Dec 23:32:49 23:34:48 13° 90° (E) 23:36:45 437.445
AISAT 04 Dec 23:33:02 23:37:25 74° 256° (WSW) 23:41:53 437.250
GONETS M04 04 Dec 23:35:05 23:41:22 23° 79° (ENE) 23:47:37
NANOSAT C BR1 04 Dec 23:40:35 23:44:40 44° 99° (E) 23:48:41 145.865
QB50P2 04 Dec 23:44:53 23:49:06 58° 101° (E) 23:53:16 145.880/145.840
POLYITAN 1 04 Dec 23:45:29 23:49:40 55° 100° (E) 23:53:48 437.675
QB50P1 04 Dec 23:58:58 00:03:15 78° 104° (ESE) 00:07:28 145.935-145.965
DUCHIFAT 1 05 Dec 00:03:28 00:07:43 75° 102° (ESE) 00:11:54 145.980
CUBEBUG 1 05 Dec 00:04:03 00:07:41 26° 265° (W) 00:11:22 437.445
Cosmos 2499 05 Dec 00:08:09 00:15:56 41° 86° (E) 00:24:00 435.465 / 435.565
VELOX 1 05 Dec 00:10:42 00:14:37 31° 263° (W) 00:18:36 145.980
POPSAT HIP 1 05 Dec 00:20:25 00:24:38 63° 286° (WNW) 00:28:47 437.405
DX 1 05 Dec 00:28:41 00:32:41 36° 262° (W) 00:36:43 434.975-435.025
ITUPSAT 1 05 Dec 00:30:45 00:32:47 13° 58° (ENE) 00:34:49 437.325
AUBIESAT-1 05 Dec 00:30:50 00:33:37 17° 56° (ENE) 00:36:30 437.475
JAS-2 05 Dec 00:31:16 00:36:12 46° 291° (WNW) 00:41:17 435.910
50 SAT 05 Dec 00:33:40 00:35:49 15° 267° (W) 00:37:58 437.505
UKube-1 05 Dec 00:38:38 00:42:38 37° 262° (W) 00:46:39 .
M-CUBED/EXP-1 PRIME 05 Dec 00:41:02 00:44:27 25° 60° (ENE) 00:48:04 437.505
TISAT 1 05 Dec 00:45:13 00:49:26 72° 74° (ENE) 00:53:42 437.305
SPROUT 05 Dec 00:55:53 00:58:39 17° 268° (W) 01:01:25 437.525
Oscar 19 05 Dec 00:56:09 01:00:29 26° 94° (E) 01:04:48 437.125/150
BUGSAT 1 05 Dec 01:06:24 01:10:33 57° 287° (WNW) 01:14:37 437.445
NANOSAT C BR1 05 Dec 01:17:09 01:20:02 18° 296° (WNW) 01:22:54 145.865
QB50P2 05 Dec 01:22:04 01:24:26 15° 298° (WNW) 01:26:46 145.880/145.840
POLYITAN 1 05 Dec 01:22:32 01:25:01 15° 298° (WNW) 01:27:28 437.675
GONETS M04 05 Dec 01:28:25 01:37:08 79° 279° (W) 01:45:54
SWISSCUBE 05 Dec 01:34:21 01:38:59 54° 71° (ENE) 01:43:39 437.505
QB50P1 05 Dec 01:37:00 01:38:23 11° 300° (WNW) 01:39:45 145.935-145.965
BEESAT 05 Dec 01:38:33 01:43:11 54° 71° (ENE) 01:47:51 436.000
O/OREOS (USA 219) 05 Dec 01:40:34 01:44:54 45° 62° (ENE) 01:49:11 437.305
DUCHIFAT 1 05 Dec 01:41:17 01:42:48 12° 300° (WNW) 01:44:18 145.980
Cosmos 2499 05 Dec 02:00:40 02:08:53 49° 287° (WNW) 02:17:28 435.465 / 435.565
AUBIESAT-1 05 Dec 02:03:31 02:07:32 55° 255° (WSW) 02:11:52 437.475
PHONESAT 2.4 05 Dec 02:03:35 02:05:55 27° 167° (SSE) 02:08:14 2401.200-2431.200
KKS-1 05 Dec 02:03:37 02:04:41 11° 58° (ENE) 02:05:46 437.445
ITUPSAT 1 05 Dec 02:05:08 02:09:55 86° 256° (WSW) 02:14:44 437.325
M-CUBED/EXP-1 PRIME 05 Dec 02:15:03 02:18:44 34° 259° (W) 02:22:44 437.505
Gurwin Techsat 1B 05 Dec 02:20:00 02:25:21 78° 103° (ESE) 02:30:39 435.225
TISAT 1 05 Dec 02:24:34 02:25:34 11° 271° (W) 02:26:34 437.305
AO-85 05 Dec 02:25:58 02:30:50 61° 121° (ESE) 02:35:21 145.980
Oscar 19 05 Dec 02:35:04 02:39:56 42° 292° (WNW) 02:44:47 437.125/150
AO-7 05 Dec 02:52:38 02:59:35 28° 94° (E) 03:06:29 29.400- 29.500
MOZHAYETS 4 05 Dec 02:56:24 03:00:59 77° 76° (ENE) 03:05:35
CUBESAT XI-V 05 Dec 02:58:20 03:00:30 13° 60° (ENE) 03:02:41 437.345
ITAMSAT 1 05 Dec 03:00:21 03:05:17 42° 99° (E) 03:10:10 435.822/435.867
SWISSCUBE 05 Dec 03:13:57 03:17:06 17° 268° (W) 03:20:16 437.505
BEESAT 05 Dec 03:18:06 03:21:17 18° 268° (W) 03:24:29 436.000
O/OREOS (USA 219) 05 Dec 03:20:50 03:23:56 19° 259° (W) 03:27:02 437.305
GONETS M04 05 Dec 03:30:01 03:35:32 18° 302° (WNW) 03:41:06
SO-50 05 Dec 03:33:29 03:36:26 16° 35° (NE) 03:39:19 436.795
KKS-1 05 Dec 03:36:02 03:40:31 89° 70° (ENE) 03:45:02 437.445
PHONESAT 2.4 05 Dec 03:38:22 03:40:53 37° 183° (S) 03:43:23 2401.200-2431.200
STARS 05 Dec 03:45:43 03:50:02 53° 72° (ENE) 03:54:22 437.465
Gurwin Techsat 1B 05 Dec 04:01:27 04:04:39 16° 301° (WNW) 04:07:50 435.225
Cosmos 2499 05 Dec 04:02:56 04:04:40 11° 311° (NW) 04:06:24 435.465 / 435.565
AO-85 05 Dec 04:07:52 04:11:35 22° 318° (NW) 04:15:06 145.980
BEESAT 3 05 Dec 04:23:00 04:24:32 12° 109° (ESE) 04:26:05 437.485
CUBESAT XI-V 05 Dec 04:32:41 04:37:16 75° 257° (WSW) 04:41:53 437.345
MOZHAYETS 4 05 Dec 04:37:15 04:38:41 11° 272° (W) 04:40:08
ITAMSAT 1 05 Dec 04:40:16 04:44:32 26° 296° (WNW) 04:48:46 435.822/435.867
HORYU 2 05 Dec 04:41:15 04:44:12 17° 92° (E) 04:47:07 437.375
AO-7 05 Dec 04:44:38 04:52:57 69° 293° (WNW) 05:01:14 29.400- 29.500
BEESAT 2 05 Dec 04:50:11 04:51:03 11° 108° (ESE) 04:51:54 435.950
GOMX 1 05 Dec 04:59:15 05:03:10 20° 90° (E) 05:07:06 467.674
Cosmos 2504 05 Dec 05:03:42 05:08:00 14° 53° (NE) 05:12:14 435.465 / 435.565
YUBILEINY 05 Dec 05:03:48 05:11:09 28° 65° (ENE) 05:18:27 435.215
SO-50 05 Dec 05:13:00 05:17:34 90° 31° (NNE) 05:22:02 436.795
PHONESAT 2.4 05 Dec 05:13:47 05:15:47 19° 199° (SSW) 05:17:47 2401.200-2431.200
BRITE-PL 05 Dec 05:16:02 05:21:21 59° 100° (E) 05:26:55 437.365/2234.400
DOVE 4 05 Dec 05:17:36 05:19:30 12° 86° (E) 05:21:23 437.250
STARS 05 Dec 05:24:02 05:26:42 16° 269° (W) 05:29:23 437.465
Cosmos 2491 05 Dec 05:35:49 05:41:27 19° 77° (ENE) 05:47:02 435.465 / 435.565
BEESAT 3 05 Dec 05:57:44 06:01:37 65° 307° (NW) 06:05:33 437.485
STRAND 1 05 Dec 06:03:44 06:08:30 40° 68° (ENE) 06:13:16 437.568
NOAA 18 05 Dec 06:04:36 06:09:02 24° 94° (E) 06:13:24 137.9125
CUTE-I 05 Dec 06:04:57 06:09:53 37° 97° (E) 06:14:47 437.470
LilacSat-2 05 Dec 06:08:41 06:12:18 41° 98° (E) 06:15:52 437.200
HORYU 2 05 Dec 06:16:44 06:21:00 48° 289° (WNW) 06:25:15 437.375
BEESAT 2 05 Dec 06:24:17 06:28:13 75° 304° (NW) 06:32:13 435.950
RS-15 05 Dec 06:26:54 06:36:33 31° 103° (ESE) 06:46:30 29.354- 29.394
HO-68 05 Dec 06:27:25 06:30:44 13° 86° (E) 06:34:01 435.675
Cubesat XI-IV 05 Dec 06:30:18 06:35:37 62° 101° (ESE) 06:40:53 437.490
NOAA 15 05 Dec 06:31:23 06:36:40 70° 103° (ESE) 06:41:55 137.62
AIST 1 05 Dec 06:35:45 06:39:52 37° 76° (ENE) 06:43:57
GOMX 1 05 Dec 06:36:13 06:41:36 62° 287° (WNW) 06:47:00 467.674
AO-7 05 Dec 06:39:05 06:44:16 18° 315° (NW) 06:49:27 29.400- 29.500
CINEMA 3 05 Dec 06:43:15 06:46:44 19° 90° (E) 06:50:06 145.822/145.860
DOVE 4 05 Dec 06:52:33 06:57:55 89° 104° (ESE) 07:03:07 437.250
Cosmos 2504 05 Dec 06:54:45 07:03:33 62° 77° (ENE) 07:11:51 435.465 / 435.565
BRITE-PL 05 Dec 06:55:24 06:59:26 22° 296° (WNW) 07:03:36 437.365/2234.400
SO-50 05 Dec 06:56:29 06:57:16 10° 253° (WSW) 06:58:02 436.795
YUBILEINY 05 Dec 06:59:58 07:08:44 70° 267° (W) 07:17:28 435.215
CUTE 1.7 + AOD 2 05 Dec 07:10:06 07:13:12 20° 93° (E) 07:16:17 437.475
CANX-2 05 Dec 07:27:18 07:31:10 34° 97° (E) 07:35:02 2200.000
Cosmos 2491 05 Dec 07:28:11 07:37:00 90° 99° (E) 07:45:49 435.465 / 435.565
BEESAT 3 05 Dec 07:38:53 07:40:02 11° 327° (NNW) 07:41:10 437.485
AAUSAT CUBESAT 2 05 Dec 07:39:38 07:41:57 14° 91° (E) 07:44:16 437.432
STRAND 1 05 Dec 07:43:28 07:47:47 27° 266° (W) 07:52:05 437.568
LilacSat-2 05 Dec 07:43:59 07:46:15 15° 295° (WNW) 07:48:30 437.200
NOAA 18 05 Dec 07:44:36 07:49:56 50° 291° (WNW) 07:55:15 137.9125
CUTE-I 05 Dec 07:45:11 07:49:50 31° 295° (WNW) 07:54:26 437.470
UWE-3 05 Dec 07:54:08 07:56:44 16° 90° (E) 07:59:18 435.000/436.395/437.385
PRISM 05 Dec 07:54:47 07:58:25 33° 69° (ENE) 08:02:06 437.425
SEEDS 05 Dec 07:54:58 07:58:55 41° 98° (E) 08:02:53 437.485
BEESAT 2 05 Dec 08:05:05 08:06:44 12° 325° (NW) 08:08:24 435.950
COMPASS 1 05 Dec 08:07:31 08:11:24 37° 97° (E) 08:15:17 437.405
UNISAT 6 05 Dec 08:09:32 08:11:48 14° 60° (ENE) 08:14:03 437.425
Cubesat XI-IV 05 Dec 08:11:25 08:15:13 20° 299° (WNW) 08:19:00 437.490
HO-68 05 Dec 08:12:20 08:19:35 77° 105° (ESE) 08:26:47 435.675
NOAA 15 05 Dec 08:12:27 08:15:52 18° 301° (WNW) 08:19:17 137.62
AIST 1 05 Dec 08:13:56 08:17:11 20° 273° (W) 08:20:25
CINEMA 3 05 Dec 08:19:28 08:24:09 48° 289° (WNW) 08:28:37 145.822/145.860
DOVE 4 05 Dec 08:32:03 08:34:47 14° 301° (WNW) 08:37:31 437.250
RS-15 05 Dec 08:35:53 08:47:44 81° 306° (NW) 09:00:11 29.354- 29.394
ZACube-1 05 Dec 08:36:51 08:40:29 27° 95° (E) 08:44:02 437.345
TIGRISAT 05 Dec 08:38:11 08:41:52 23° 66° (ENE) 08:45:32 435.000
ANTELSAT 05 Dec 08:39:14 08:43:02 25° 66° (ENE) 08:46:49 437.575/2403.000
AIST 2 05 Dec 08:41:54 08:46:00 80° 121° (ESE) 08:50:11 435.215
CUBEBUG 2 05 Dec 08:44:27 08:48:55 85° 103° (ESE) 08:53:13 437.445
FUNcube-1 05 Dec 08:45:05 08:48:51 30° 96° (E) 08:52:31 145.935
CUTE 1.7 + AOD 2 05 Dec 08:45:15 08:49:09 37° 290° (WNW) 08:53:03 437.475
DELFI C3 05 Dec 08:48:36 08:49:37 11° 89° (E) 08:50:37 145.870
Cosmos 2504 05 Dec 08:48:58 08:56:18 31° 278° (W) 09:03:21 435.465 / 435.565
YUBILEINY 05 Dec 08:59:58 09:03:48 14° 288° (WNW) 09:07:37 435.215
JAS-2 05 Dec 09:02:40 09:05:46 14° 58° (ENE) 09:08:44 435.910
CANX-2 05 Dec 09:03:34 09:06:50 22° 293° (WNW) 09:10:05 2200.000
AAUSAT CUBESAT 2 05 Dec 09:13:42 09:17:42 50° 287° (WNW) 09:21:42 437.432
Oscar 11 05 Dec 09:16:42 09:21:00 66° 101° (E) 09:25:16 145.826/435.025
AO-85 05 Dec 09:17:50 09:19:18 12° 32° (NNE) 09:20:46 145.980
Cosmos 2491 05 Dec 09:28:50 09:35:07 21° 299° (WNW) 09:41:26 435.465 / 435.565
UWE-3 05 Dec 09:29:19 09:33:31 49° 288° (WNW) 09:37:35 435.000/436.395/437.385
PRISM 05 Dec 09:30:39 09:33:47 21° 266° (W) 09:36:57 437.425
SEEDS 05 Dec 09:31:23 09:34:20 19° 295° (WNW) 09:37:17 437.485
POPSAT HIP 1 05 Dec 09:40:56 09:42:44 12° 61° (ENE) 09:44:31 437.405
UNISAT 6 05 Dec 09:43:11 09:47:54 78° 259° (W) 09:52:35 437.425
GONETS M04 05 Dec 09:43:25 09:46:22 12° 51° (NE) 09:49:19
COMPASS 1 05 Dec 09:43:40 09:46:42 20° 294° (WNW) 09:49:45 437.405
Cosmos 2499 05 Dec 09:58:53 10:04:00 17° 56° (NE) 10:08:56 435.465 / 435.565
HO-68 05 Dec 10:01:06 10:06:35 24° 304° (NW) 10:12:04 435.675
CUSAT 1 05 Dec 10:03:45 10:06:53 48° 281° (W) 10:09:34 437.405
ZACube-1 05 Dec 10:13:06 10:16:44 27° 292° (WNW) 10:20:17 437.345
HUMSAT D 05 Dec 10:13:15 10:17:15 52° 100° (E) 10:21:13 437.325/437.525
TIGRISAT 05 Dec 10:13:53 10:18:19 41° 262° (W) 10:22:44 435.000
ANTELSAT 05 Dec 10:15:12 10:19:32 37° 263° (W) 10:23:54 437.575/2403.000
DELFI C3 05 Dec 10:20:53 10:24:49 62° 286° (WNW) 10:28:45 145.870
FUNcube-1 05 Dec 10:21:31 10:24:58 25° 293° (WNW) 10:28:21 145.935
AIST 2 05 Dec 10:22:27 10:25:02 16° 323° (NW) 10:27:38 435.215
CUBEBUG 2 05 Dec 10:23:37 10:24:48 11° 301° (WNW) 10:25:58 437.445
BUGSAT 1 05 Dec 10:24:23 10:26:11 12° 61° (ENE) 10:27:59 437.445
PCSat 05 Dec 10:33:32 10:36:32 15° 104° (ESE) 10:39:33 145.827
NANOSAT C BR1 05 Dec 10:33:42 10:37:40 39° 70° (ENE) 10:41:40 145.865
